• In Hungary
  • List of Countries
  • For 7 days
  • Water Temperature
  • Satellite Maps
  • Weather Map
  • News
  • Weather Widgets
  • user-avatar
    Login

    Hourly Weather SanFrancisco

    Today, 15 December, Friday

    Time Temperature Precipitation Wind Pressure Humidity
    00:00 +19°C° 0 mm 2 mps 682 mmHg 87%
    01:00 +19°C° 0 mm 2 mps 682 mmHg 89%
    02:00 +18°C° 0 mm 2 mps 682 mmHg 90%
    03:00 +18°C° 0 mm 2 mps 682 mmHg 91%
    04:00 +18°C° 0 mm 2 mps 682 mmHg 91%
    05:00 +18°C° 0 mm 2 mps 682 mmHg 92%
    06:00 +19°C° 0 mm 2 mps 682 mmHg 89%
    07:00 +19°C° 0 mm 2 mps 683 mmHg 86%
    08:00 +20°C° 0 mm 2 mps 683 mmHg 81%
    09:00 +23°C° 0 mm 2 mps 684 mmHg 73%
    10:00 +25°C° 0 mm 2 mps 684 mmHg 65%
    11:00 +26°C° 0 mm 2 mps 685 mmHg 56%
    12:00 +27°C° 0 mm 2 mps 684 mmHg 53%
    13:00 +28°C° 0 mm 2 mps 684 mmHg 49%
    14:00 +29°C° 0 mm 2 mps 683 mmHg 45%
    15:00 +28°C° 0 mm 2 mps 683 mmHg 49%
    16:00 +27°C° 0 mm 2 mps 682 mmHg 53%
    17:00 +26°C° 0 mm 2 mps 682 mmHg 57%
    18:00 +25°C° 0 mm 2 mps 682 mmHg 64%
    19:00 +23°C° 0 mm 2 mps 681 mmHg 72%
    20:00 +20°C° 0 mm 2 mps 681 mmHg 80%
    21:00 +20°C° 0 mm 2 mps 682 mmHg 82%
    22:00 +20°C° 0 mm 2 mps 682 mmHg 85%
    23:00 +19°C° 0 mm 2 mps 682 mmHg 88%

    Tomorrow, 16 December, Saturday

    Time Temperature Precipitation Wind Pressure Humidity
    00:00 +19°C° 0 mm 2 mps 682 mmHg 89%
    01:00 +19°C° 0 mm 2 mps 682 mmHg 89%
    02:00 +19°C° 0 mm 2 mps 682 mmHg 90%
    03:00 +18°C° 0 mm 2 mps 682 mmHg 91%
    04:00 +18°C° 0 mm 2 mps 682 mmHg 91%
    05:00 +18°C° 0 mm 2 mps 682 mmHg 92%
    06:00 +19°C° 0 mm 2 mps 682 mmHg 89%
    07:00 +19°C° 0 mm 2 mps 682 mmHg 87%
    08:00 +20°C° 0 mm 2 mps 683 mmHg 84%
    09:00 +21°C° 0 mm 2 mps 683 mmHg 76%
    10:00 +24°C° 0 mm 2 mps 684 mmHg 68%
    11:00 +26°C° 0 mm 2 mps 685 mmHg 60%
    12:00 +27°C° 0 mm 2 mps 684 mmHg 56%
    13:00 +28°C° 0 mm 2 mps 683 mmHg 52%
    14:00 +29°C° 0 mm 2 mps 683 mmHg 48%
    15:00 +28°C° 0 mm 3 mps 682 mmHg 51%
    16:00 +27°C° 0 mm 3 mps 682 mmHg 53%
    17:00 +26°C° 0 mm 3 mps 681 mmHg 56%
    18:00 +25°C° 0 mm 3 mps 681 mmHg 64%
    19:00 +23°C° 0 mm 2 mps 681 mmHg 72%
    20:00 +20°C° 0 mm 2 mps 681 mmHg 80%
    21:00 +20°C° 0 mm 2 mps 681 mmHg 83%
    22:00 +20°C° 0 mm 2 mps 681 mmHg 85%
    23:00 +20°C° 0 mm 2 mps 682 mmHg 88%

    Day after tomorrow, 17 December, Sunday

    Time Temperature Precipitation Wind Pressure Humidity
    00:00 +20°C° 0 mm 2 mps 682 mmHg 88%
    01:00 +20°C° 0 mm 2 mps 681 mmHg 89%
    02:00 +19°C° 0 mm 2 mps 681 mmHg 90%
    03:00 +19°C° 0 mm 2 mps 681 mmHg 90%
    04:00 +19°C° 0 mm 2 mps 681 mmHg 91%
    05:00 +19°C° 0 mm 2 mps 681 mmHg 92%
    06:00 +19°C° 0 mm 2 mps 682 mmHg 89%
    07:00 +20°C° 0 mm 2 mps 682 mmHg 86%
    08:00 +20°C° 0 mm 2 mps 683 mmHg 83%
    09:00 +23°C° 0 mm 2 mps 684 mmHg 75%
    10:00 +24°C° 0 mm 2 mps 684 mmHg 68%
    11:00 +26°C° 0 mm 2 mps 685 mmHg 60%
    12:00 +27°C° 0 mm 2 mps 684 mmHg 56%
    13:00 +28°C° 0 mm 2 mps 684 mmHg 52%
    14:00 +29°C° 0 mm 2 mps 683 mmHg 48%
    15:00 +28°C° 0.2 mm 2 mps 682 mmHg 53%
    16:00 +27°C° 0.2 mm 3 mps 682 mmHg 57%
    17:00 +26°C° 0.2 mm 3 mps 681 mmHg 61%
    18:00 +25°C° 0 mm 2 mps 681 mmHg 68%
    19:00 +23°C° 0 mm 2 mps 681 mmHg 76%
    20:00 +21°C° 0 mm 2 mps 682 mmHg 83%
    21:00 +21°C° 0.1 mm 2 mps 682 mmHg 85%
    22:00 +20°C° 0.1 mm 2 mps 682 mmHg 86%
    23:00 +20°C° 0.1 mm 2 mps 682 mmHg 88%

    18 December, Monday

    Time Temperature Precipitation Wind Pressure Humidity
    00:00 +20°C° 0.1 mm 2 mps 682 mmHg 89%
    01:00 +20°C° 0.1 mm 2 mps 682 mmHg 89%
    02:00 +20°C° 0.1 mm 2 mps 682 mmHg 90%
    03:00 +19°C° 0 mm 2 mps 681 mmHg 90%
    04:00 +19°C° 0 mm 2 mps 681 mmHg 91%
    05:00 +19°C° 0 mm 2 mps 681 mmHg 92%
    06:00 +19°C° 0 mm 2 mps 682 mmHg 89%
    07:00 +20°C° 0 mm 2 mps 682 mmHg 86%
    08:00 +21°C° 0 mm 2 mps 683 mmHg 84%
    09:00 +23°C° 0 mm 2 mps 684 mmHg 76%
    10:00 +25°C° 0 mm 2 mps 684 mmHg 68%
    11:00 +26°C° 0 mm 2 mps 685 mmHg 61%
    12:00 +27°C° 0 mm 2 mps 684 mmHg 58%
    13:00 +28°C° 0 mm 2 mps 683 mmHg 56%
    14:00 +28°C° 0 mm 2 mps 683 mmHg 53%
    15:00 +28°C° 0 mm 2 mps 682 mmHg 56%
    16:00 +27°C° 0 mm 2 mps 682 mmHg 60%
    17:00 +26°C° 0 mm 2 mps 681 mmHg 63%
    18:00 +25°C° 0 mm 2 mps 681 mmHg 69%
    19:00 +23°C° 0 mm 2 mps 682 mmHg 76%
    20:00 +21°C° 0 mm 2 mps 682 mmHg 82%
    21:00 +21°C° 0 mm 2 mps 682 mmHg 83%
    22:00 +20°C° 0 mm 2 mps 682 mmHg 85%
    23:00 +20°C° 0 mm 2 mps 683 mmHg 87%

    19 December, Tuesday

    Time Temperature Precipitation Wind Pressure Humidity
    00:00 +20°C° 0 mm 2 mps 682 mmHg 88%
    01:00 +20°C° 0 mm 2 mps 682 mmHg 89%
    02:00 +20°C° 0 mm 2 mps 682 mmHg 89%
    03:00 +19°C° 0 mm 2 mps 682 mmHg 91%
    04:00 +19°C° 0 mm 2 mps 681 mmHg 92%
    05:00 +20°C° 0 mm 1 mps 681 mmHg 93%
    06:00 +19°C° 0 mm 2 mps 682 mmHg 89%
    07:00 +20°C° 0 mm 2 mps 683 mmHg 86%
    08:00 +21°C° 0 mm 2 mps 683 mmHg 83%
    09:00 +23°C° 0 mm 2 mps 684 mmHg 75%
    10:00 +25°C° 0 mm 2 mps 684 mmHg 67%
    11:00 +27°C° 0 mm 2 mps 685 mmHg 59%
    12:00 +28°C° 0 mm 2 mps 684 mmHg 56%
    13:00 +28°C° 0 mm 3 mps 683 mmHg 54%
    14:00 +29°C° 0 mm 3 mps 683 mmHg 51%
    15:00 +28°C° 0 mm 3 mps 682 mmHg 54%
    16:00 +28°C° 0 mm 3 mps 681 mmHg 58%
    17:00 +27°C° 0 mm 3 mps 681 mmHg 61%
    18:00 +25°C° 0 mm 3 mps 681 mmHg 68%
    19:00 +24°C° 0 mm 2 mps 681 mmHg 75%
    20:00 +21°C° 0 mm 2 mps 681 mmHg 82%
    21:00 +21°C° 0.1 mm 2 mps 681 mmHg 84%
    22:00 +20°C° 0.1 mm 2 mps 682 mmHg 86%
    23:00 +20°C° 0.1 mm 2 mps 682 mmHg 88%

    20 December, Wednesday

    Time Temperature Precipitation Wind Pressure Humidity
    00:00 +20°C° 0.1 mm 2 mps 682 mmHg 89%
    01:00 +20°C° 0.1 mm 2 mps 681 mmHg 89%
    02:00 +20°C° 0.1 mm 2 mps 681 mmHg 90%
    03:00 +19°C° 0 mm 2 mps 681 mmHg 90%
    04:00 +19°C° 0 mm 2 mps 681 mmHg 90%
    05:00 +19°C° 0 mm 2 mps 681 mmHg 91%
    06:00 +20°C° 0 mm 2 mps 682 mmHg 88%
    07:00 +20°C° 0 mm 2 mps 682 mmHg 84%
    08:00 +21°C° 0 mm 2 mps 683 mmHg 81%
    09:00 +24°C° 0 mm 2 mps 683 mmHg 72%
    10:00 +26°C° 0 mm 2 mps 684 mmHg 63%
    11:00 +28°C° 0 mm 2 mps 684 mmHg 53%
    12:00 +28°C° 0 mm 2 mps 683 mmHg 52%
    13:00 +29°C° 0 mm 2 mps 683 mmHg 50%
    14:00 +30°C° 0 mm 2 mps 682 mmHg 48%
    15:00 +29°C° 0 mm 2 mps 681 mmHg 53%
    16:00 +28°C° 0 mm 2 mps 681 mmHg 57%
    17:00 +27°C° 0 mm 2 mps 680 mmHg 62%
    18:00 +25°C° 0 mm 2 mps 680 mmHg 69%
    19:00 +24°C° 0 mm 2 mps 681 mmHg 76%
    20:00 +21°C° 0 mm 2 mps 681 mmHg 82%
    21:00 +21°C° 0 mm 2 mps 681 mmHg 84%
    22:00 +21°C° 0 mm 2 mps 681 mmHg 86%
    23:00 +20°C° 0 mm 2 mps 681 mmHg 88%
    Show more